Regional Weather Roundup
Issued by NWS Cleveland, OH

Home | Current Version | Previous Version | Text Only | Print | Product List | Glossary Off
Versions: 1 2 3 4 5 6 7 8 9 10 11 12 13 14 15 16 17 18 19 20 21 22 23 24 25 26 27 28 29 30 31 32 33 34 35 36 37 38 39 40 41 42 43 44 45 46 47 48 49 50

452
ASUS41 KCLE 050812
RWRCLE
OHIO REGIONAL WEATHER ROUNDUP
NATIONAL WEATHER SERVICE WILMINGTON, OH
300 AM EST MON DEC 05 2016

NOTE: "FAIR" INDICATES FEW OR NO CLOUDS BELOW 12,000 FEET WITH NO
SIGNIFICANT WEATHER AND/OR OBSTRUCTIONS TO VISIBILITY.

OHZ001>008-015>018-024>027-034-035-043-044-050900-
   NORTHWEST OHIO

CITY           SKY/WX    TMP DP  RH WIND       PRES   REMARKS
DEFIANCE       CLOUDY    35  31  85 SW6       29.94R
FINDLAY        CLOUDY    35  30  82 W17G24    29.94R WCI  25
TOLEDO EXPRESS CLOUDY    34  33  96 W10       29.92R WCI  26
TOLEDO EXEC    CLOUDY    36  33  89 W17G26    29.93R
LIMA           CLOUDY    33  31  92 W20       29.96R WCI  21
$$

OHZ009>014-019>023-028>033-038-089-050900-
   NORTHEAST OHIO

CITY           SKY/WX    TMP DP  RH WIND       PRES   REMARKS
CLE-HOPKINS    CLOUDY    40  34  79 W16G28    29.91R
CLE-LAKEFRONT  CLOUDY    40  36  86 W25       29.88R
CUY CO. ARPT   NOT AVBL
LORAIN-ELYRIA  CLOUDY    37  32  82 W16       29.92R
ASHTABULA      CLOUDY    37  35  92 SW12      29.85R
AKRON-CANTON   CLOUDY    39  35  86 W20G28    29.89R
WOOSTER        CLOUDY    37  34  89 W20G30    29.91R
MANSFIELD      CLOUDY    35  33  92 W14G24    29.91R WCI  26
YOUNGSTOWN     DRIZZLE   38  36  92 SW16      29.86R FOG
$$

OHZ042-051>053-060>062-070>072-077>081-050900-
  SOUTHWEST OHIO

CITY           SKY/WX    TMP DP  RH WIND       PRES   REMARKS
CINC-COVINGTON CLOUDY    39  36  89 W8        30.01R
CINC-LUNKEN    CLOUDY    41  37  86 W7        30.03R
HAMILTON       CLOUDY    39  32  76 W9        30.03R
DAYTON         CLOUDY    35  31  85 W16       30.00R WCI  25
WRIGHT-PAT AFB CLOUDY    38  35  89 W18G24    29.98R
DAYTON GENERAL CLOUDY    37  32  82 W10       29.98R
WILMINGTON     CLOUDY    38  35  89 W16       29.99R
$$

OHZ036-037-039>041-045>050-054>059-063>069-073>076-082>088-050900-
  CENTRAL AND SOUTHEAST OHIO

CITY           SKY/WX    TMP DP  RH WIND       PRES   REMARKS
COLUMBUS       CLOUDY    40  37  89 W16       29.96R
OSU AIRPORT    CLOUDY    39  35  86 W12G24    29.96R
BOLTON FIELD   CLOUDY    39  36  87 W8        29.97R
RICKENBACK AFB CLOUDY    39  37  91 W13G18    29.98R
NEWARK         CLOUDY    41  37  86 W14       29.95R
MARION         CLOUDY    35  32  88 W15G25    29.95R WCI  25
LANCASTER      CLOUDY    42  37  82 W13G23    29.98R
ZANESVILLE     CLOUDY    44  38  79 W16G25    29.95R
NEW PHILLY     CLOUDY    41  39  93 W7        29.93R
$$




USA.gov is the U.S. government's official web portal to all federal, state and local government web resources and services.